• în Republica Moldova
  • Lista ţărilor
  • Pe 7 zile
  • Temperatura apei
  • Hartă satelitară
  • Meteo pe hartă
  • Widget-uri
  • user-avatar
    Intrare

    Meteo pe oră la Stepanakert

    Astăzi, 25 Iunie, Duminică

    Timp Temperatura Precipitaţii Vânt Presiune Umiditate
    00:00 +18°C° 0 mm 1 m/s 690 mmHg 76%
    01:00 +18°C° 0 mm 1 m/s 690 mmHg 78%
    02:00 +18°C° 0 mm 1 m/s 690 mmHg 80%
    03:00 +18°C° 0 mm 1 m/s 690 mmHg 80%
    04:00 +19°C° 0,5 mm 1 m/s 690 mmHg 77%
    05:00 +21°C° 0,5 mm 1 m/s 691 mmHg 75%
    06:00 +22°C° 0,5 mm 1 m/s 691 mmHg 72%
    07:00 +24°C° 0,3 mm 1 m/s 691 mmHg 64%
    08:00 +25°C° 0,3 mm 2 m/s 692 mmHg 56%
    09:00 +27°C° 0 mm 2 m/s 692 mmHg 47%
    10:00 +28°C° 0,6 mm 2 m/s 692 mmHg 46%
    11:00 +29°C° 0,6 mm 2 m/s 692 mmHg 44%
    12:00 +29°C° 0,6 mm 2 m/s 692 mmHg 43%
    13:00 +30°C° 0,5 mm 2 m/s 692 mmHg 42%
    14:00 +30°C° 0,5 mm 2 m/s 692 mmHg 41%
    15:00 +30°C° 0,5 mm 2 m/s 692 mmHg 40%
    16:00 +29°C° 0,3 mm 2 m/s 692 mmHg 42%
    17:00 +29°C° 0,3 mm 2 m/s 692 mmHg 45%
    18:00 +28°C° 0,3 mm 1 m/s 692 mmHg 47%
    19:00 +26°C° 0,1 mm 2 m/s 692 mmHg 54%
    20:00 +23°C° 0,1 mm 2 m/s 692 mmHg 60%
    21:00 +20°C° 0,1 mm 2 m/s 692 mmHg 66%
    22:00 +19°C° 0 mm 2 m/s 693 mmHg 69%
    23:00 +20°C° 0 mm 1 m/s 693 mmHg 72%

    Mâine, 26 Iunie, Luni

    Timp Temperatura Precipitaţii Vânt Presiune Umiditate
    00:00 +19°C° 0 mm 1 m/s 693 mmHg 74%
    01:00 +19°C° 0 mm 1 m/s 693 mmHg 76%
    02:00 +18°C° 0 mm 1 m/s 693 mmHg 77%
    03:00 +18°C° 0 mm 1 m/s 693 mmHg 79%
    04:00 +19°C° 0 mm 1 m/s 694 mmHg 76%
    05:00 +20°C° 0 mm 1 m/s 694 mmHg 73%
    06:00 +21°C° 0 mm 1 m/s 695 mmHg 70%
    07:00 +23°C° 0 mm 2 m/s 695 mmHg 64%
    08:00 +25°C° 0 mm 2 m/s 696 mmHg 57%
    09:00 +26°C° 0 mm 3 m/s 696 mmHg 51%
    10:00 +27°C° 0 mm 3 m/s 696 mmHg 48%
    11:00 +28°C° 0 mm 4 m/s 696 mmHg 46%
    12:00 +29°C° 0 mm 4 m/s 696 mmHg 43%
    13:00 +29°C° 0 mm 4 m/s 695 mmHg 43%
    14:00 +29°C° 0 mm 4 m/s 695 mmHg 43%
    15:00 +30°C° 0 mm 4 m/s 695 mmHg 43%
    16:00 +29°C° 0 mm 4 m/s 695 mmHg 46%
    17:00 +28°C° 0 mm 4 m/s 694 mmHg 49%
    18:00 +27°C° 0 mm 3 m/s 694 mmHg 53%
    19:00 +24°C° 0 mm 3 m/s 694 mmHg 60%
    20:00 +21°C° 0 mm 2 m/s 694 mmHg 68%
    21:00 +19°C° 0 mm 2 m/s 694 mmHg 76%
    22:00 +19°C° 0 mm 1 m/s 694 mmHg 77%
    23:00 +19°C° 0 mm 1 m/s 694 mmHg 79%

    Poimâine, 27 Iunie, Marţi

    Timp Temperatura Precipitaţii Vânt Presiune Umiditate
    00:00 +19°C° 0 mm 1 m/s 694 mmHg 80%
    01:00 +18°C° 0 mm 1 m/s 694 mmHg 81%
    02:00 +18°C° 0 mm 1 m/s 694 mmHg 82%
    03:00 +16°C° 0 mm 1 m/s 694 mmHg 83%
    04:00 +19°C° 0 mm 1 m/s 694 mmHg 79%
    05:00 +20°C° 0 mm 1 m/s 694 mmHg 76%
    06:00 +19°C° 0 mm 0 m/s 695 mmHg 72%
    07:00 +23°C° 0 mm 1 m/s 695 mmHg 64%
    08:00 +25°C° 0 mm 1 m/s 695 mmHg 56%
    09:00 +27°C° 0 mm 2 m/s 695 mmHg 48%
    10:00 +28°C° 0 mm 2 m/s 694 mmHg 45%
    11:00 +29°C° 0 mm 2 m/s 694 mmHg 42%
    12:00 +31°C° 0 mm 2 m/s 694 mmHg 39%
    13:00 +31°C° 0 mm 2 m/s 693 mmHg 39%
    14:00 +32°C° 0 mm 2 m/s 693 mmHg 38%
    15:00 +32°C° 0 mm 2 m/s 692 mmHg 38%
    16:00 +31°C° 0 mm 2 m/s 692 mmHg 40%
    17:00 +31°C° 0 mm 2 m/s 692 mmHg 43%
    18:00 +30°C° 0 mm 2 m/s 692 mmHg 45%
    19:00 +27°C° 0 mm 2 m/s 692 mmHg 54%
    20:00 +24°C° 0 mm 1 m/s 692 mmHg 62%
    21:00 +21°C° 0 mm 1 m/s 692 mmHg 70%
    22:00 +21°C° 0 mm 1 m/s 692 mmHg 71%
    23:00 +21°C° 0 mm 1 m/s 692 mmHg 72%

    28 Iunie, Miercuri

    Timp Temperatura Precipitaţii Vânt Presiune Umiditate
    00:00 +20°C° 0 mm 1 m/s 691 mmHg 74%
    01:00 +20°C° 0 mm 1 m/s 691 mmHg 75%
    02:00 +19°C° 0 mm 1 m/s 691 mmHg 77%
    03:00 +17°C° 0 mm 0 m/s 691 mmHg 78%
    04:00 +19°C° 0 mm 0 m/s 691 mmHg 74%
    05:00 +22°C° 0 mm 1 m/s 692 mmHg 70%
    06:00 +24°C° 0 mm 1 m/s 692 mmHg 66%
    07:00 +26°C° 0 mm 1 m/s 692 mmHg 58%
    08:00 +28°C° 0 mm 1 m/s 693 mmHg 50%
    09:00 +29°C° 0 mm 2 m/s 693 mmHg 43%
    10:00 +30°C° 0 mm 2 m/s 692 mmHg 40%
    11:00 +32°C° 0 mm 2 m/s 692 mmHg 38%
    12:00 +34°C° 0 mm 3 m/s 692 mmHg 35%
    13:00 +34°C° 0 mm 3 m/s 691 mmHg 35%
    14:00 +34°C° 0 mm 3 m/s 691 mmHg 35%
    15:00 +35°C° 0 mm 3 m/s 690 mmHg 35%
    16:00 +34°C° 0,1 mm 2 m/s 690 mmHg 38%
    17:00 +32°C° 0,1 mm 2 m/s 690 mmHg 41%
    18:00 +31°C° 0,1 mm 2 m/s 690 mmHg 44%
    19:00 +29°C° 0,1 mm 2 m/s 690 mmHg 51%
    20:00 +26°C° 0,1 mm 1 m/s 690 mmHg 57%
    21:00 +23°C° 0,1 mm 1 m/s 690 mmHg 63%
    22:00 +23°C° 0 mm 1 m/s 690 mmHg 64%
    23:00 +22°C° 0 mm 1 m/s 690 mmHg 65%

    29 Iunie, Joi

    Timp Temperatura Precipitaţii Vânt Presiune Umiditate
    00:00 +21°C° 0 mm 1 m/s 690 mmHg 66%
    01:00 +21°C° 0 mm 1 m/s 690 mmHg 68%
    02:00 +21°C° 0 mm 1 m/s 690 mmHg 69%
    03:00 +20°C° 0 mm 1 m/s 690 mmHg 70%
    04:00 +22°C° 0 mm 1 m/s 690 mmHg 66%
    05:00 +23°C° 0 mm 1 m/s 691 mmHg 63%
    06:00 +24°C° 0 mm 1 m/s 691 mmHg 59%
    07:00 +26°C° 0 mm 1 m/s 692 mmHg 51%
    08:00 +28°C° 0 mm 1 m/s 692 mmHg 44%
    09:00 +30°C° 0 mm 2 m/s 692 mmHg 36%
    10:00 +31°C° 0 mm 2 m/s 692 mmHg 34%
    11:00 +31°C° 0 mm 2 m/s 692 mmHg 33%
    12:00 +33°C° 0 mm 3 m/s 692 mmHg 31%
    13:00 +34°C° 0,1 mm 3 m/s 692 mmHg 31%
    14:00 +34°C° 0,1 mm 3 m/s 691 mmHg 30%
    15:00 +34°C° 0,1 mm 3 m/s 691 mmHg 29%
    16:00 +34°C° 0,1 mm 3 m/s 691 mmHg 31%
    17:00 +33°C° 0,1 mm 3 m/s 691 mmHg 33%
    18:00 +31°C° 0,1 mm 3 m/s 691 mmHg 35%
    19:00 +28°C° 0 mm 2 m/s 691 mmHg 40%
    20:00 +25°C° 0 mm 2 m/s 691 mmHg 45%
    21:00 +22°C° 0 mm 1 m/s 691 mmHg 51%
    22:00 +21°C° 0 mm 2 m/s 691 mmHg 49%
    23:00 +21°C° 0 mm 2 m/s 691 mmHg 48%

    30 Iunie, Vineri

    Timp Temperatura Precipitaţii Vânt Presiune Umiditate
    00:00 +21°C° 0 mm 2 m/s 691 mmHg 47%
    01:00 +20°C° 0 mm 2 m/s 691 mmHg 48%
    02:00 +20°C° 0 mm 2 m/s 691 mmHg 49%
    03:00 +19°C° 0 mm 2 m/s 691 mmHg 50%
    04:00 +20°C° 0 mm 2 m/s 691 mmHg 48%
    05:00 +21°C° 0 mm 2 m/s 692 mmHg 46%
    06:00 +23°C° 0 mm 2 m/s 692 mmHg 44%
    07:00 +25°C° 0 mm 2 m/s 693 mmHg 38%
    08:00 +28°C° 0 mm 2 m/s 693 mmHg 32%
    09:00 +30°C° 0 mm 2 m/s 693 mmHg 26%
    10:00 +31°C° 0 mm 2 m/s 693 mmHg 26%
    11:00 +31°C° 0 mm 3 m/s 693 mmHg 25%
    12:00 +33°C° 0 mm 3 m/s 693 mmHg 24%
    13:00 +34°C° 0 mm 3 m/s 692 mmHg 25%
    14:00 +34°C° 0 mm 4 m/s 692 mmHg 26%
    15:00 +34°C° 0 mm 4 m/s 692 mmHg 26%
    16:00 +33°C° 0 mm 4 m/s 692 mmHg 29%
    17:00 +32°C° 0 mm 4 m/s 692 mmHg 32%
    18:00 +30°C° 0 mm 4 m/s 692 mmHg 34%
    19:00 +28°C° 0 mm 3 m/s 692 mmHg 40%
    20:00 +25°C° 0 mm 3 m/s 692 mmHg 45%
    21:00 +21°C° 0 mm 2 m/s 692 mmHg 51%
    22:00 +21°C° 0 mm 2 m/s 692 mmHg 51%
    23:00 +20°C° 0 mm 2 m/s 692 mmHg 51%
    Arată mai mult